Regional Weather Roundup
Issued by NWS Jackson, KY

Home | Current Version | Previous Version | Text Only | Print | Product List | Glossary Off
Versions: 1 2 3 4 5 6 7 8 9 10 11 12 13 14 15 16 17 18 19 20 21 22 23 24 25 26 27 28 29 30 31 32 33 34 35 36 37 38 39 40 41 42 43 44 45 46 47 48 49 50

000
ASUS43 KJKL 231010
RWRJKL

EAST KENTUCKY HOURLY WEATHER ROUNDUP
NATIONAL WEATHER SERVICE JACKSON KY
600 AM EDT TUE SEP 23 2014

NOTE: "FAIR" INDICATES FEW OR NO CLOUDS BELOW 12,000 FEET WITH
NO SIGNIFICANT WEATHER AND/OR OBSTRUCTIONS TO VISIBILITY.

* THESE REPORTS ARE NOT UNDER NWS QUALITY CONTROL AND MAY NOT
  REPORT WEATHER SUCH AS PRECIPITATION AND FOG.

KYZ079-080-083-085-087-088-110-112-115-119-120-231100
...EASTERN KENTUCKY...

CITY           SKY/WX    TMP DP  RH WIND       PRES   REMARKS
JACKSON        CLEAR     49  44  83 CALM      30.27S
LONDON         CLEAR     48  45  89 N3        30.27S
SOMERSET*      CLEAR     45  45 100 CALM      30.28S
MONTICELLO*    CLEAR     43  42  96 CALM      30.28S
MIDDLESBORO*   FOG       48  48 100 CALM      30.28R VSB 1/4
HARLAN APT*    CLOUDY    46  46 100 MISG      30.27R
HAZARD APT*    FOG       45  45 100 CALM      30.27S VSB 1/4
BLACK MTN*       N/A     43  41  93 NE1         N/A
PIKEVILLE APT* FOG       46  45  93 CALM      30.27R VSB 0
BIG SANDY*     MOSUNNY   44  44 100 CALM      30.28R FOG
MOREHEAD APT*  SUNNY     46  43  87 CALM      30.31R
$$

KYZ035-036-041-042-044-050-067-078-099-231100
...CENTRAL KENTUCKY...

CITY           SKY/WX    TMP DP  RH WIND       PRES   REMARKS
MT STERLING*   CLEAR     41  41 100 CALM      30.30S
FLEMING/MASON* CLEAR     43  43 100 E3        30.32R
DANVILLE*      CLEAR     41  41 100 CALM      30.29R
RICHMOND*      CLEAR     43  41  93 CALM      30.28R
LEXINGTON      CLEAR     49  42  77 E5        30.29R
FRANKFORT      CLEAR     42  40  92 CALM      30.28R
$$

KYZ091>093-OHZ055-061-077-WVZ005-015-034-035-042-231100
...SOUTHERN OHIO/WEST VIRGINIA...

CITY           SKY/WX    TMP DP  RH WIND       PRES   REMARKS
COVINGTON      CLEAR     49  44  83 CALM      30.30R
COLUMBUS       CLEAR     45  40  82 CALM      30.31R
DAYTON         CLEAR     45  41  86 CALM      30.31R
WILMINGTON     CLEAR     39  36  89 SE3       30.30R
HUNTINGTON     PTCLDY    45  45 100 N3        30.29S
CHARLESTON     FOG       46  46 100 CALM      30.29R VSB 1/4
PINEVILLE*     CLOUDY    46  46 100 MISG      30.33R FOG
BECKLEY        CLEAR     41  38  89 CALM      30.28S
BLUEFIELD      FOG       42  40  92 CALM      30.27S VSB 1/4
$$

VAZ002-007-008-TNZ017-027-036-066-071-231100
...SOUTHWEST VIRGINIA/EAST TENNESSEE...

CITY           SKY/WX    TMP DP  RH WIND       PRES   REMARKS
WISE*          CLEAR     45  45 100 CALM      30.28R
JONESVILLE*    FOG       41  41 100 CALM      30.29R VSB<1/4
ABINGDON*      CLEAR     47  46  93 E6        30.26R
BRISTOL        CLEAR     44  42  93 CALM      30.25S
KNOXVILLE      CLEAR     52  48  86 N7        30.22R
OAK RIDGE      CLEAR     51  48  89 E3        30.25R
CROSSVILLE     CLEAR     48  44  86 N3        30.24S
NASHVILLE      CLEAR     52  46  80 NE5       30.24R
$$

...KEY TO REMARKS...
VSB - VISIBILITY IN MILES
WCI - WIND CHILL INDEX
HX  - HEAT INDEX

$$



USA.gov is the U.S. government's official web portal to all federal, state and local government web resources and services.